Location: Kumla
(59.1265°N, 15.1401°E)
Time: 23:53:07
(UTC+01:00)

Vanguard 1 Rocket - Pass Details

Date: 03 December 2023
Orbit: 653 x 4219 km, 34.3° (Epoch: 01 March)

Event Time Altitude Azimuth Distance (km) Brightness Sun altitude
Rises 03:27:44 0° 189° (S) 8,091 12.0 -36.7°
Reaches altitude 10° 03:40:33 10° 161° (SSE) 6,186 11.6 -35.1°
Maximum altitude 03:44:13 11° 150° (SSE) 5,772 11.6 -34.6°
Drops below altitude 10° 03:47:32 10° 138° (SE) 5,508 11.6 -34.2°
Sets 03:55:53 0° 107° (ESE) 5,543 12.2 -33.2°
